Zurück zum Katalog

COSMOS 1898

AktivMilitärLEO
NORAD 18585·PAYLOAD·🇷🇺 Russia

Gestartet Dec 1, 1987 von Plesetsk Cosmodrome

Loading…

Nächste Überflüge (nächste 24 Stunden)

TLE

AktuellSource: Space-Track

Epoche: Sep 14, 2026, 19:57 UTC

1 18585U 87098A   26257.83192240  .00000080  00000-0  37581-4 0  9996
2 18585  74.0052 306.8588 0021967 281.4008  78.4676 14.34592448 28285

Verfolge COSMOS 1898 in Echtzeit mit AllMySat

Download on the App Store